全球星 M063星 (GLOBALSTAR M063)

导读 | 豆包AI

GLOBALSTAR M063是全球星(Globalstar)卫星通信系统的成员,由美国主导开发,于2000年2月8日发射入轨,归属于全球星项目运营。 作为低轨移动通信卫星,它运行在近地轨道,依托全球星星座提供语音通话、数据传输、短消息、定位等服务,可补充地面网络覆盖盲区,助力偏远区域与移动场景的全球通信连接,是全球卫星移动通信体系的重要组成部分。

Basic Information
目录编号:
26081
目录名称:
GLOBALSTAR M063
国际标识:
2000-008A
轨道中心:
EARTH
卫星名称:
全球星 M063星
卫星全名:
全球星 M063星 (GLOBALSTAR M063)
卫星状态:
在轨 (已飞行9577 天)
发射日期:
2000-02-08 UTC
国别 :
(GLOB)
星等 :
--
Orbit Information
数据来源 国际轨道数据 AOE轨道数据
星历时间 2026-04-29T03:48:03+0800
5小时前
查看轨道信息
2026-04-27T17:00:00+0800
1天前
查看轨道信息
半长轴 8121.457km 8121.451km
偏心率 0.0004273 0.0003973
轨道倾角 51.998° 51.999°
近地点辐角 189.669° 185.951°
升交点赤经 0.283° 4.101°
平近点角 247.985° 176.926°
近地点 1739.849km 1740.087km
远地点 1746.791km 1746.541km
周期 121.398分钟 121.398分钟
每日圈数 11.861834 11.861848
Detailed Information
固有亮度:
5
最大亮度:
7.9
平衡模式:
三轴稳定
覆盖范围:
全球
运营商:
全球星公司
运营商所在国:
美国
使用方式:
暂无
Satellite Introduction
全球星星座由48颗卫星加8颗备份星组成。这些卫星分布在8个倾角为52度的圆形轨道平面上,每个轨道平面6颗卫星,另有1 颗备用星。轨道高度约为1414km,传输时延和处理时延小于300ms,整个系统的覆盖区为南北纬70度以内的地区。该卫星已退役。
2D Orbit Map
3D Orbit Map
Orbit Altitude Analysis Chart
Orbit Inclination Analysis Chart
Orbit Comprehensive Analysis Chart
View Comprehensive Chart